(304412) = 2006 TM48

Discovered at Kitt Peak on 2006-10-12 by Spacewatch.

Orbit

Orbit type: Main Belt

Note: WebGL enabled browser required.

epoch2024-03-31.0
epoch JD2460400.5
perihelion date2022-04-20.58025
perihelion JD2459690.08025
argument of perihelion (°)307.76522
ascending node (°)65.60782
inclination (°)2.38462
eccentricity0.1430618
perihelion distance (AU)2.5957185
Tisserand w.r.t. Jupiter3.2
ΔV w.r.t. Earth (km/sec)10.1
semimajor axis (AU)3.0290613
mean anomaly (°)132.81795
mean daily motion (°/day)0.18695700
aphelion distance (AU)3.462
period (years)5.27
P-vector [x]0.97226133
P-vector [y]0.22554762
P-vector [z]0.06193680
Q-vector [x]-0.23080723
Q-vector [y]0.88226743
Q-vector [z]0.41028307
absolute magnitude16.66
phase slope0.15
uncertainty0
referenceMPEC 2024-E73
observations used235
oppositions12
arc length (days)8119
first opposition used2001
last opposition used2024
residual rms (arc-secs)0.78
perturbers coarse indicatorM-v
perturbers precise indicator003Ek
first observation date used2001-12-12.0
last observation date used2024-03-05.0
computer nameMPCLINUX
JD of orbit computation2455860.613902
perihelion JD uncertainty (days)1.0452E-03
argument of perihelion uncertainty (°)2.6440E-04
ascending node uncertainty (°)1.4034E-04
inclination uncertainty (°)6.5272E-06
eccentricity uncertainty 1.3411E-06
perihelion distance uncertainty (AU)4.4192E-06
Minimum Orbit Intersection Distances (in AU)
for orbit epoch: 2460400.5, reference: E2024-E73
Mercury2.24426
Venus1.87025
Earth1.59721
Mars1.17616
Jupiter1.99141
Saturn5.95745
Uranus15.0166
Neptune27.0935

Observations

239 total observations over interval: 2001 12 12.23307 – 2024 03 05.239006
These data are available for download (format description).

Date (UT) J2000 RA J2000 Dec Magn Location Ref
2001 12 12.23307 04 56 33.90 +23 21 39.7 21.4   644 – Palomar Mountain/NEAT MPS 236323
2001 12 12.31857 04 56 29.05 +23 21 37.5 21.1   644 – Palomar Mountain/NEAT MPS 236323
2001 12 12.38338 04 56 25.29 +23 21 35.1 21.2   644 – Palomar Mountain/NEAT MPS 236323
2006 10 12.38147 03 16 00.63 +16 26 34.2   691 – Steward Observatory, Kitt Peak-Spacewatch MPS 183151
2006 10 12.39890 03 16 00.07 +16 26 32.7   691 – Steward Observatory, Kitt Peak-Spacewatch MPS 183151
2006 10 12.41632 03 15 59.50 +16 26 31.0   691 – Steward Observatory, Kitt Peak-Spacewatch MPS 183151
2006 10 16.42248 03 13 44.11 +16 19 48.3 20.3 V 691 – Steward Observatory, Kitt Peak-Spacewatch MPS 183151
2006 10 16.43991 03 13 43.42 +16 19 46.2 20.5 V 691 – Steward Observatory, Kitt Peak-Spacewatch MPS 183151
2006 10 16.45734 03 13 42.75 +16 19 44.1 20.4 V 691 – Steward Observatory, Kitt Peak-Spacewatch MPS 183151
2006 10 20.40102 03 11 09.05 +16 11 56.7 20.3 V 691 – Steward Observatory, Kitt Peak-Spacewatch MPS 183151
2006 10 20.41844 03 11 08.32 +16 11 55.1 20.3 V 691 – Steward Observatory, Kitt Peak-Spacewatch MPS 183151
2006 10 20.43585 03 11 07.57 +16 11 52.4 20.2 V 691 – Steward Observatory, Kitt Peak-Spacewatch MPS 183151
2006 10 22.36197 03 09 46.00 +16 07 40.6 20.2 V 691 – Steward Observatory, Kitt Peak-Spacewatch MPS 184215
2006 10 22.37933 03 09 45.24 +16 07 38.8 20.4 V 691 – Steward Observatory, Kitt Peak-Spacewatch MPS 184215
2006 10 22.40357 03 09 44.12 +16 07 35.5 20.4 V 691 – Steward Observatory, Kitt Peak-Spacewatch MPS 184215
2006 10 28.29169 03 05 12.66 +15 53 28.0 20.7 V G96 – Mt. Lemmon Survey MPS 185638
2006 10 28.30142 03 05 12.12 +15 53 26.3 20.9 V G96 – Mt. Lemmon Survey MPS 185638
2006 10 28.31117 03 05 11.68 +15 53 24.6 20.2 V G96 – Mt. Lemmon Survey MPS 185638
2006 10 28.32100 03 05 11.14 +15 53 23.3 20.4 V G96 – Mt. Lemmon Survey MPS 185638
2006 10 28.39032 03 05 07.66 +15 53 13.1 20.5 V 691 – Steward Observatory, Kitt Peak-Spacewatch MPS 185638
2006 10 28.40778 03 05 06.78 +15 53 10.5 20.5 V 691 – Steward Observatory, Kitt Peak-Spacewatch MPS 185638
2006 10 28.42524 03 05 05.92 +15 53 07.8 20.4 V 691 – Steward Observatory, Kitt Peak-Spacewatch MPS 185638
2006 11 01.39071 03 01 48.84 +15 42 45.2 20.3 V 691 – Steward Observatory, Kitt Peak-Spacewatch MPS 185638
2006 11 01.40817 03 01 47.91 +15 42 42.2 20.2 V 691 – Steward Observatory, Kitt Peak-Spacewatch MPS 185638
2006 11 01.42556 03 01 47.01 +15 42 39.4 20.4 V 691 – Steward Observatory, Kitt Peak-Spacewatch MPS 185638
2006 11 11.31826 02 53 16.11 +15 15 29.8 19.8 V G96 – Mt. Lemmon Survey MPS 187117
2006 11 11.32327 02 53 15.86 +15 15 29.0 19.7 V G96 – Mt. Lemmon Survey MPS 187117
2006 11 11.32839 02 53 15.57 +15 15 28.0 19.9 V G96 – Mt. Lemmon Survey MPS 187117
2006 11 11.33333 02 53 15.32 +15 15 27.5 19.8 V G96 – Mt. Lemmon Survey MPS 187117
2006 11 13.25402 02 51 36.90 +15 10 12.9 19.7 V G96 – Mt. Lemmon Survey MPS 187117
2006 11 13.25843 02 51 36.75 +15 10 12.1 19.6 V G96 – Mt. Lemmon Survey MPS 187117
2006 11 13.26287 02 51 36.46 +15 10 11.4 20.0 V G96 – Mt. Lemmon Survey MPS 187117
2006 11 13.26734 02 51 36.21 +15 10 10.1 20.0 V G96 – Mt. Lemmon Survey MPS 187117
2006 11 17.30642 02 48 13.89 +14 59 30.3 20.3 V 703 – Catalina Sky Survey MPS 187117
2006 11 17.31344 02 48 13.53 +14 59 28.7 20.2 V 703 – Catalina Sky Survey MPS 187117
2006 11 17.32044 02 48 13.10 +14 59 26.6 21.1 V 703 – Catalina Sky Survey MPS 187117
2006 11 17.32749 02 48 12.67 +14 59 24.9 20.3 V 703 – Catalina Sky Survey MPS 187117
2006 11 22.28144 02 44 19.21 +14 47 17.7 20.1   G96 – Mt. Lemmon Survey MPS 188783
2006 11 22.28813 02 44 18.92 +14 47 17.1 19.6   G96 – Mt. Lemmon Survey MPS 188783
2006 11 22.29488 02 44 18.56 +14 47 15.6 20.3   G96 – Mt. Lemmon Survey MPS 188783
2006 11 22.30151 02 44 18.31 +14 47 14.9 19.8   G96 – Mt. Lemmon Survey MPS 188783
2006 11 22.39541 02 44 13.92 +14 47 01.3 20.5   G96 – Mt. Lemmon Survey MPS 188783
2006 11 22.39818 02 44 13.77 +14 47 01.2 20.7   G96 – Mt. Lemmon Survey MPS 188783
2006 11 22.40096 02 44 13.66 +14 47 00.4 20.7   G96 – Mt. Lemmon Survey MPS 188783
2006 11 22.40370 02 44 13.56 +14 47 00.4 20.6   G96 – Mt. Lemmon Survey MPS 188783
2006 11 23.24407 02 43 36.30 +14 45 06.0 20.4 V G96 – Mt. Lemmon Survey MPS 188783
2006 11 23.25151 02 43 35.94 +14 45 05.1 20.1 V G96 – Mt. Lemmon Survey MPS 188783
2006 11 23.25883 02 43 35.65 +14 45 04.0 20.9 V G96 – Mt. Lemmon Survey MPS 188783
2006 11 23.26619 02 43 35.29 +14 45 03.1 20.4 V G96 – Mt. Lemmon Survey MPS 188783
2006 12 12.19931 02 33 18.25 +14 18 27.2 20.5 V G96 – Mt. Lemmon Survey MPS 192330
2006 12 12.21609 02 33 17.89 +14 18 26.7 20.2 V G96 – Mt. Lemmon Survey MPS 192330
2006 12 12.22946 02 33 17.60 +14 18 26.5 20.3 V G96 – Mt. Lemmon Survey MPS 192330
2006 12 12.24409 02 33 17.31 +14 18 26.0 20.4 V G96 – Mt. Lemmon Survey MPS 192330
2008 01 10.39812 09 48 18.28 +16 28 42.2 21.6 V G96 – Mt. Lemmon Survey MPS 236323
2008 01 10.40361 09 48 18.07 +16 28 44.0 21.8 V G96 – Mt. Lemmon Survey MPS 236323
2008 01 10.40914 09 48 17.85 +16 28 44.7 21.6 V G96 – Mt. Lemmon Survey MPS 236323
2008 01 10.41456 09 48 17.71 +16 28 45.9 21.5 V G96 – Mt. Lemmon Survey MPS 236323
2008 02 02.17776 09 32 26.69 +18 01 51.3 21.0 V 691 – Steward Observatory, Kitt Peak-Spacewatch MPS 236323
2008 02 02.19886 09 32 25.63 +18 01 56.2 20.7 V 691 – Steward Observatory, Kitt Peak-Spacewatch MPS 236323
2008 02 02.21994 09 32 24.59 +18 02 01.1 20.5 V 691 – Steward Observatory, Kitt Peak-Spacewatch MPS 236323
2008 02 09.17838 09 26 34.68 +18 31 17.7 20.9 V 691 – Steward Observatory, Kitt Peak-Spacewatch MPS 237609
2008 02 09.19603 09 26 33.81 +18 31 21.9 20.9 V 691 – Steward Observatory, Kitt Peak-Spacewatch MPS 237609
2008 02 09.21368 09 26 32.89 +18 31 26.4 20.6 V 691 – Steward Observatory, Kitt Peak-Spacewatch MPS 237609
2008 02 24.28834 09 14 25.28 +19 25 13.0   691 – Steward Observatory, Kitt Peak-Spacewatch MPS 239489
2008 02 24.30921 09 14 24.36 +19 25 17.1   691 – Steward Observatory, Kitt Peak-Spacewatch MPS 239489
2008 02 24.33008 09 14 23.42 +19 25 20.3   691 – Steward Observatory, Kitt Peak-Spacewatch MPS 239489
2008 03 01.16164 09 10 20.82 +19 40 55.0 21.2 V 691 – Steward Observatory, Kitt Peak-Spacewatch MPS 240789
2008 03 01.18030 09 10 20.07 +19 40 57.8 21.0 V 691 – Steward Observatory, Kitt Peak-Spacewatch MPS 240789
2008 03 01.19873 09 10 19.37 +19 41 00.1 20.8 V 691 – Steward Observatory, Kitt Peak-Spacewatch MPS 240789
2011 09 26.43256 01 00 19.513 +02 59 45.51 20.5 w F51 – Pan-STARRS 1, Haleakala MPS 392671
2011 09 26.46734 01 00 17.927 +02 59 36.71 20.9 w F51 – Pan-STARRS 1, Haleakala MPS 392671
2011 09 26.48136 01 00 17.285 +02 59 33.13 21.0 w F51 – Pan-STARRS 1, Haleakala MPS 392671
2011 09 28.10531 00 59 05.81 +02 52 39.7 20.4 R J04 – ESA Optical Ground Station, Tenerife MPS 395047
2011 09 28.12672 00 59 04.77 +02 52 34.4 20.3 R J04 – ESA Optical Ground Station, Tenerife MPS 395047
2011 09 28.14813 00 59 03.74 +02 52 28.8 20.7 R J04 – ESA Optical Ground Station, Tenerife MPS 395047
2011 10 19.33925 00 42 53.936 +01 26 44.54 20.6 g F51 – Pan-STARRS 1, Haleakala MPS 395047
2011 10 19.35169 00 42 53.390 +01 26 42.06 20.5 g F51 – Pan-STARRS 1, Haleakala MPS 395047
2011 10 19.36463 00 42 52.806 +01 26 39.14 20.2 r F51 – Pan-STARRS 1, Haleakala MPS 395047
2011 10 19.37630 00 42 52.286 +01 26 36.87 20.2 r F51 – Pan-STARRS 1, Haleakala MPS 395047
2011 10 22.22621 00 40 54.08 +01 17 22.5 20.2 V G96 – Mt. Lemmon Survey MPS 396338
2011 10 22.23383 00 40 53.76 +01 17 21.5 20.1 V G96 – Mt. Lemmon Survey MPS 396338
2011 10 22.24144 00 40 53.43 +01 17 19.8 19.6 V G96 – Mt. Lemmon Survey MPS 396338
2011 10 22.24897 00 40 53.11 +01 17 18.4 19.8 V G96 – Mt. Lemmon Survey MPS 396338
2011 10 24.137458 00 39 38.66 +01 11 42.0 20.2 V H21 – Astronomical Research Observatory, Westfield MPS 396338
2011 10 24.149387 00 39 38.16 +01 11 39.8 20.8 V H21 – Astronomical Research Observatory, Westfield MPS 396338
2011 10 24.20435 00 39 36.03 +01 11 31.2 19.8 V G96 – Mt. Lemmon Survey MPS 396338
2011 10 24.20994 00 39 35.82 +01 11 30.2 19.8 V G96 – Mt. Lemmon Survey MPS 396338
2011 10 24.21553 00 39 35.60 +01 11 29.2 19.5 V G96 – Mt. Lemmon Survey MPS 396338
